Location: Newark
(51.3318°N, 0.0053°E)
Time: 06:56:37
(UTC+00:00)

ONEWEB-0421 - Pass Details

Date: 08 June 2024
Orbit: 1188 x 1191 km, 87.9° (Epoch: 16 June)

Event Time Altitude Azimuth Distance (km) Brightness Sun altitude
Rises 01:45:04 0° 360° (N) 4,098 ? -12.2°
Reaches altitude 10° 01:47:55 10° 7° (N) 3,130 ? -12.0°
Maximum altitude 01:54:47 43° 78° (ENE) 1,608 ? -11.6°
Drops below altitude 10° 02:01:37 10° 149° (SSE) 3,113 ? -11.1°
Sets 02:04:26 0° 156° (SSE) 4,072 ? -10.8°
